�N����,����,�~����,�C��,���x,�C��,����,���ϕ���,�ő�u�ԕ���,�ő厞����,���˗�,�I�_���x,�n�����x,�ő啗���N��,DTYPE
"18/06/01","00:10",0.0,16.1,97.6,1004.3,341.3,0.8,2.0,0.1,0.00,15.8,18.4,"00:08:40",1
"18/06/01","00:20",0.0,16.1,97.4,1004.1,344.9,0.8,1.8,329.2,0.00,15.7,18.5,"00:19:04",1
"18/06/01","00:30",0.0,16.1,97.6,1004.1,305.8,1.2,2.0,346.2,0.00,15.8,18.3,"00:26:48",1
"18/06/01","00:40",0.0,16.0,97.5,1004.5,291.2,0.8,1.8,313.3,0.00,15.6,18.4,"00:38:00",1
"18/06/01","00:50",0.0,15.8,97.6,1004.1,288.6,0.8,2.0,333.9,0.00,15.5,18.4,"00:45:36",1
"18/06/01","01:00",0.0,15.4,97.4,1004.3,304.4,1.1,1.8,335.2,0.00,15.0,18.4,"00:58:18",1
"18/06/01","01:10",0.0,15.1,97.7,1004.3,313.7,1.0,1.4,318.6,0.00,14.8,18.3,"01:07:16",1
"18/06/01","01:20",0.0,15.0,98.1,1004.5,308.3,0.7,1.4,318.5,0.00,14.7,18.2,"01:14:14",1
"18/06/01","01:30",0.0,15.1,97.3,1004.5,309.1,0.7,1.4,343.0,0.00,14.7,18.0,"01:24:30",1
"18/06/01","01:40",0.0,15.1,98.2,1004.5,322.5,0.7,2.4,342.2,0.00,14.9,18.2,"01:38:00",1
"18/06/01","01:50",0.0,15.3,97.4,1004.5,310.6,0.7,1.0,307.7,0.00,14.9,17.9,"01:41:14",1
"18/06/01","02:00",0.0,15.2,97.8,1004.3,339.9,1.2,1.9,334.3,0.00,14.9,17.9,"01:56:08",1
"18/06/01","02:10",0.0,15.1,97.9,1005.0,326.8,1.7,2.5,338.5,0.00,14.8,18.1,"02:01:38",1
"18/06/01","02:20",0.0,15.0,98.0,1004.5,312.1,1.6,3.4,321.6,0.00,14.7,18.2,"02:16:26",1
"18/06/01","02:30",0.0,15.2,97.4,1004.5,320.9,1.8,3.2,325.4,0.00,14.8,18.1,"02:22:02",1
"18/06/01","02:40",0.0,15.2,97.9,1005.0,323.4,2.1,3.4,307.9,0.00,14.9,17.9,"02:37:10",1
"18/06/01","02:50",0.0,15.3,97.8,1005.0,332.2,1.5,2.6,334.1,0.00,15.0,17.9,"02:40:16",1
"18/06/01","03:00",0.0,15.4,97.8,1004.8,337.8,1.1,2.1,325.3,0.00,15.1,17.9,"02:55:04",1
"18/06/01","03:10",0.0,15.3,97.7,1004.8,323.5,1.1,1.8,317.1,0.00,15.0,17.8,"03:07:12",1
"18/06/01","03:20",0.0,15.2,97.8,1005.0,326.9,1.8,2.9,337.7,0.00,14.9,17.9,"03:11:36",1
"18/06/01","03:30",0.0,15.3,97.7,1005.5,330.7,1.3,2.9,338.2,0.00,15.0,18.0,"03:24:16",1
"18/06/01","03:40",0.0,15.3,97.5,1005.2,331.3,1.6,2.8,336.8,0.00,14.9,17.8,"03:34:56",1
"18/06/01","03:50",0.0,15.4,97.4,1005.2,351.7,1.2,2.2,337.9,0.00,15.0,18.1,"03:40:56",1
"18/06/01","04:00",0.0,15.4,97.4,1005.5,337.5,1.5,3.2,336.7,0.00,15.0,17.9,"03:56:00",1
"18/06/01","04:10",0.0,15.4,97.2,1005.2,342.9,1.1,2.5,337.0,0.00,15.0,17.8,"04:04:16",1
"18/06/01","04:20",0.0,15.4,97.2,1005.5,334.1,1.6,3.2,339.5,0.00,15.0,17.8,"04:15:20",1
"18/06/01","04:30",0.0,15.5,97.0,1005.7,334.6,0.8,2.8,324.3,0.00,15.1,18.0,"04:21:28",1
"18/06/01","04:40",0.0,15.3,96.9,1005.7,336.9,0.5,1.7,321.7,0.00,14.9,18.0,"04:38:24",1
"18/06/01","04:50",0.0,15.2,97.2,1006.0,319.9,1.0,1.7,326.3,0.00,14.8,17.9,"04:44:08",1
"18/06/01","05:00",0.0,15.1,97.2,1006.0,311.7,0.7,2.5,317.4,0.00,14.7,18.0,"04:58:22",1
"18/06/01","05:10",0.0,15.1,97.3,1006.0,346.0,1.0,1.7,10.6,0.00,14.7,17.5,"05:06:44",1
"18/06/01","05:20",0.0,15.3,97.3,1006.2,317.1,0.5,1.0,350.6,0.00,14.9,17.9,"05:17:52",1
"18/06/01","05:30",0.0,15.3,97.3,1006.4,311.3,0.6,1.4,346.5,0.00,14.9,17.9,"05:21:12",1
"18/06/01","05:40",0.0,15.4,97.2,1006.2,281.1,0.2,0.5,250.8,0.00,15.0,18.0,"05:33:04",1
"18/06/01","05:50",0.0,15.6,97.3,1006.4,291.0,0.6,1.0,323.2,0.01,15.2,17.8,"05:46:32",1
"18/06/01","06:00",0.0,15.6,97.2,1006.7,320.9,1.0,1.7,314.9,0.01,15.2,17.7,"05:59:36",1
"18/06/01","06:10",0.0,15.7,97.2,1006.7,318.0,1.2,2.0,322.6,0.01,15.3,17.9,"06:03:12",1
"18/06/01","06:20",0.0,15.9,96.8,1006.7,314.1,1.5,2.9,339.2,0.02,15.4,17.8,"06:12:16",1
"18/06/01","06:30",0.0,16.0,96.5,1006.4,318.2,1.7,4.1,340.2,0.04,15.5,17.7,"06:22:56",1
"18/06/01","06:40",0.0,16.0,96.1,1006.7,323.4,2.0,3.5,321.2,0.01,15.4,17.8,"06:39:20",1
"18/06/01","06:50",0.0,16.1,95.9,1006.9,321.3,1.8,3.4,328.7,0.00,15.5,17.9,"06:43:04",1
"18/06/01","07:00",0.0,16.0,95.5,1006.9,326.1,1.8,3.4,342.4,0.00,15.3,17.8,"06:59:28",1
"18/06/01","07:10",0.0,16.1,95.2,1007.1,324.7,1.8,3.7,322.7,0.01,15.4,17.8,"07:04:32",1
"18/06/01","07:20",0.0,16.3,94.7,1007.1,320.5,1.7,2.8,326.3,0.03,15.5,18.1,"07:12:08",1
"18/06/01","07:30",0.0,16.5,93.9,1007.1,310.0,1.2,2.0,345.2,0.05,15.6,17.9,"07:29:28",1
"18/06/01","07:40",0.0,17.0,93.3,1007.4,333.5,0.8,2.0,307.6,0.09,16.0,17.9,"07:31:04",1
"18/06/01","07:50",0.0,18.7,90.0,1007.4,342.2,0.7,1.8,316.6,0.27,17.1,17.9,"07:48:56",1
"18/06/01","08:00",0.0,18.1,86.7,1007.4,292.2,1.5,3.1,330.5,0.18,15.9,18.1,"07:50:40",1
"18/06/01","08:10",0.0,18.5,85.9,1007.4,298.1,1.6,3.1,348.6,0.17,16.1,18.2,"08:05:28",1
"18/06/01","08:20",0.0,18.5,84.3,1007.4,291.1,1.7,3.2,317.8,0.25,15.8,18.3,"08:11:20",1
"18/06/01","08:30",0.0,18.1,85.3,1007.1,281.8,1.6,2.9,303.8,0.11,15.6,18.3,"08:26:08",1
"18/06/01","08:40",0.0,18.5,83.7,1007.6,277.1,1.3,2.7,239.4,0.12,15.7,18.3,"08:36:00",1
"18/06/01","08:50",0.0,18.6,84.4,1007.8,290.3,1.6,3.2,339.7,0.10,16.0,18.7,"08:42:40",1
"18/06/01","09:00",0.0,18.9,83.0,1008.1,283.5,1.2,2.2,351.2,0.11,16.0,18.5,"08:56:24",1
"18/06/01","09:10",0.0,19.0,81.5,1008.6,274.6,1.3,3.1,340.0,0.09,15.8,18.7,"09:08:00",1
"18/06/01","09:20",0.0,19.3,79.6,1008.1,316.6,2.0,4.1,332.8,0.17,15.7,18.5,"09:16:32",1
"18/06/01","09:30",0.0,19.4,78.1,1008.1,309.9,2.0,5.2,345.3,0.17,15.5,18.8,"09:25:12",1
"18/06/01","09:40",0.0,20.3,77.5,1007.6,309.5,1.0,3.1,335.4,0.19,16.3,18.9,"09:33:28",1
"18/06/01","09:50",0.0,20.5,74.9,1008.1,215.6,0.8,2.1,233.4,0.20,15.9,18.9,"09:46:56",1
"18/06/01","10:00",0.0,20.3,71.4,1007.8,342.1,1.2,3.5,331.6,0.23,15.0,19.0,"09:59:44",1
"18/06/01","10:10",0.0,20.0,70.2,1008.1,335.5,2.5,5.7,331.6,0.17,14.5,19.0,"10:06:56",1
"18/06/01","10:20",0.0,20.5,70.6,1008.1,332.2,2.3,4.5,335.8,0.22,15.0,19.2,"10:10:48",1
"18/06/01","10:30",0.0,21.2,66.3,1007.8,2.0,1.6,3.7,30.7,0.32,14.7,19.3,"10:27:12",1
"18/06/01","10:40",0.0,22.6,65.8,1007.8,341.9,2.1,5.2,350.4,0.58,15.9,19.3,"10:35:28",1
"18/06/01","10:50",0.0,22.3,63.3,1007.8,2.6,2.1,4.1,346.4,0.37,15.0,19.5,"10:40:56",1
"18/06/01","11:00",0.0,21.8,63.3,1007.1,318.2,1.8,4.1,336.9,0.39,14.6,19.7,"10:59:12",1
"18/06/01","11:10",0.0,22.9,62.1,1006.9,350.2,2.1,5.7,33.5,0.63,15.3,20.0,"11:02:56",1
"18/06/01","11:20",0.0,22.7,58.9,1006.9,4.6,1.8,4.0,358.0,0.65,14.3,20.1,"11:18:56",1
"18/06/01","11:30",0.0,23.1,63.5,1007.1,349.3,2.7,5.4,353.1,0.66,15.8,20.3,"11:20:02",1
"18/06/01","11:40",0.0,23.1,59.2,1006.9,318.5,2.0,5.2,333.2,0.65,14.7,20.5,"11:30:08",1
"18/06/01","11:50",0.0,23.4,58.9,1006.7,315.3,1.5,3.9,345.7,0.63,15.0,20.8,"11:49:36",1
"18/06/01","12:00",0.0,23.2,60.9,1006.7,335.3,2.6,4.4,331.5,0.57,15.3,21.0,"11:54:08",1
"18/06/01","12:10",0.0,24.2,58.9,1006.4,313.1,2.0,5.9,332.0,0.62,15.7,21.3,"12:01:36",1
"18/06/01","12:20",0.0,23.6,57.7,1006.2,322.6,2.5,5.6,337.3,0.54,14.8,21.7,"12:19:28",1
"18/06/01","12:30",0.0,24.1,56.3,1006.2,348.6,2.1,5.1,344.3,0.64,14.9,21.6,"12:22:32",1
"18/06/01","12:40",0.0,23.6,56.3,1006.2,340.0,2.8,5.4,318.4,0.62,14.4,22.1,"12:31:12",1
"18/06/01","12:50",0.0,24.0,54.5,1006.0,341.5,2.3,6.2,330.1,0.55,14.3,22.3,"12:47:28",1
"18/06/01","13:00",0.0,24.9,57.4,1006.0,321.9,2.0,4.9,321.1,0.61,16.0,22.2,"12:51:20",1
"18/06/01","13:10",0.0,24.0,55.5,1005.7,339.9,3.2,6.6,331.1,0.60,14.6,22.4,"13:01:52",1
"18/06/01","13:20",0.0,24.5,55.9,1005.5,340.0,2.3,5.5,36.6,0.59,15.2,22.1,"13:16:56",1
"18/06/01","13:30",0.0,24.4,53.8,1005.7,335.3,2.3,4.8,345.8,0.58,14.5,22.2,"13:25:12",1
"18/06/01","13:40",0.0,24.1,52.3,1005.7,346.4,2.8,5.6,328.1,0.58,13.8,22.3,"13:35:36",1
"18/06/01","13:50",0.0,24.6,52.7,1005.7,342.6,2.0,3.6,5.9,0.57,14.3,22.2,"13:40:08",1
"18/06/01","14:00",0.0,24.3,50.3,1005.7,0.9,2.2,4.3,32.0,0.56,13.4,22.0,"13:54:16",1
"18/06/01","14:10",0.0,24.8,51.2,1005.2,344.7,1.6,4.2,2.1,0.54,14.1,22.2,"14:01:20",1
"18/06/01","14:20",0.0,24.7,50.8,1005.5,335.3,2.1,5.7,334.5,0.53,13.9,22.2,"14:17:44",1
"18/06/01","14:30",0.0,24.7,49.4,1005.2,18.1,1.8,5.6,12.0,0.52,13.4,22.4,"14:28:40",1
"18/06/01","14:40",0.0,24.8,52.0,1005.2,1.4,1.8,5.4,354.9,0.50,14.3,22.5,"14:31:20",1
"18/06/01","14:50",0.0,24.6,49.2,1005.2,5.1,2.2,5.2,325.7,0.48,13.3,22.5,"14:40:24",1
"18/06/01","15:00",0.0,24.9,51.7,1005.2,354.5,2.2,4.4,341.8,0.47,14.3,22.7,"14:59:04",1
"18/06/01","15:10",0.0,25.4,52.0,1005.5,336.3,2.5,5.9,336.1,0.45,14.9,22.6,"15:01:04",1
"18/06/01","15:20",0.0,25.0,49.8,1005.2,328.9,2.5,4.5,323.9,0.43,13.8,22.7,"15:12:24",1
"18/06/01","15:30",0.0,24.8,52.2,1005.2,340.4,2.8,7.2,344.9,0.41,14.4,22.6,"15:26:56",1
"18/06/01","15:40",0.0,24.7,52.8,1005.5,339.1,2.7,5.0,325.4,0.39,14.5,22.8,"15:32:40",1
"18/06/01","15:50",0.0,25.1,48.8,1005.2,340.6,2.8,6.0,336.0,0.37,13.6,22.8,"15:44:00",1
"18/06/01","16:00",0.0,25.1,49.2,1005.2,335.5,2.2,5.1,336.5,0.35,13.7,22.8,"15:51:20",1
"18/06/01","16:10",0.0,25.4,50.8,1005.5,340.9,2.1,4.3,339.3,0.32,14.5,22.8,"16:00:48",1
"18/06/01","16:20",0.0,25.0,48.8,1005.7,336.6,2.6,5.1,327.8,0.30,13.5,22.7,"16:16:48",1
"18/06/01","16:30",0.0,24.5,51.2,1005.7,335.8,3.0,6.0,323.3,0.28,13.8,22.7,"16:28:24",1
"18/06/01","16:40",0.0,24.3,50.6,1006.0,335.3,2.8,7.0,331.7,0.25,13.4,22.6,"16:33:52",1
"18/06/01","16:50",0.0,24.4,51.3,1006.0,335.7,2.3,5.1,337.6,0.23,13.7,22.8,"16:47:28",1
"18/06/01","17:00",0.0,24.1,50.2,1006.0,330.2,2.6,5.5,295.3,0.18,13.1,22.6,"16:57:52",1
"18/06/01","17:10",0.0,23.7,50.5,1005.7,337.8,2.8,5.5,322.1,0.03,12.9,22.6,"17:00:56",1
"18/06/01","17:20",0.0,23.6,51.5,1005.5,339.8,2.8,4.9,315.9,0.01,13.1,22.5,"17:18:48",1
"18/06/01","17:30",0.0,23.6,51.5,1006.0,337.5,2.6,4.9,333.3,0.01,13.1,22.6,"17:20:32",1
"18/06/01","17:40",0.0,23.4,51.6,1006.0,336.7,2.3,4.4,348.3,0.01,12.9,22.4,"17:32:32",1
"18/06/01","17:50",0.0,23.3,51.7,1006.4,336.4,2.1,4.2,332.8,0.01,12.9,22.5,"17:42:16",1
"18/06/01","18:00",0.0,23.2,51.5,1006.4,337.4,1.8,4.4,328.3,0.01,12.7,22.2,"17:50:56",1
"18/06/01","18:10",0.0,22.9,51.2,1006.4,320.3,1.8,3.4,332.6,0.00,12.3,22.2,"18:09:36",1
"18/06/01","18:20",0.0,22.6,53.5,1006.4,328.6,1.5,3.2,336.0,0.00,12.7,22.0,"18:11:28",1
"18/06/01","18:30",0.0,21.9,54.4,1006.4,334.9,1.7,4.5,343.6,0.00,12.3,22.0,"18:22:56",1
"18/06/01","18:40",0.0,21.4,55.3,1006.7,338.2,2.0,4.5,342.4,0.00,12.1,21.8,"18:31:44",1
"18/06/01","18:50",0.0,20.9,57.4,1007.1,319.1,1.5,2.6,338.2,0.00,12.2,21.7,"18:41:36",1
"18/06/01","19:00",0.0,20.5,60.4,1006.9,335.6,1.5,3.4,350.4,0.00,12.6,21.7,"18:55:28",1
"18/06/01","19:10",0.0,20.0,63.1,1007.6,328.9,1.7,2.4,330.3,0.00,12.8,21.6,"19:03:28",1
"18/06/01","19:20",0.0,19.4,65.7,1007.8,331.2,1.8,3.9,327.1,0.00,12.9,21.5,"19:17:12",1
"18/06/01","19:30",0.0,19.0,68.8,1007.6,358.2,1.6,3.1,356.8,0.00,13.2,21.4,"19:26:16",1
"18/06/01","19:40",0.0,19.0,69.1,1007.8,353.9,1.7,3.3,2.4,0.00,13.3,20.9,"19:36:40",1
"18/06/01","19:50",0.0,19.0,68.9,1008.3,347.9,1.8,3.7,348.7,0.00,13.2,21.1,"19:46:00",1
"18/06/01","20:00",0.0,18.7,69.1,1008.3,334.8,2.5,4.5,337.1,0.00,13.0,21.1,"19:59:28",1
"18/06/01","20:10",0.0,18.5,70.2,1008.3,331.7,3.1,5.1,342.2,0.00,13.0,20.8,"20:03:44",1
"18/06/01","20:20",0.0,17.9,73.1,1008.6,333.2,2.5,5.8,342.0,0.00,13.1,20.9,"20:10:16",1
"18/06/01","20:30",0.0,17.4,75.1,1008.8,341.9,2.1,4.2,338.7,0.00,13.0,20.5,"20:28:24",1
"18/06/01","20:40",0.0,17.2,76.2,1008.8,337.3,2.2,3.6,344.6,0.00,13.0,20.4,"20:36:24",1
"18/06/01","20:50",0.0,17.2,76.7,1008.8,337.5,2.1,4.9,347.4,0.00,13.1,20.3,"20:45:28",1
"18/06/01","21:00",0.0,17.0,77.3,1009.0,332.8,2.3,5.6,340.9,0.00,13.0,20.3,"20:51:28",1
"18/06/01","21:10",0.0,16.9,77.6,1009.3,326.7,2.3,4.4,337.2,0.00,13.0,20.3,"21:03:28",1
"18/06/01","21:20",0.0,16.8,77.5,1009.0,325.3,2.2,5.0,342.5,0.00,12.9,20.2,"21:16:24",1
"18/06/01","21:30",0.0,16.7,77.7,1009.3,321.0,2.2,4.7,334.5,0.00,12.8,20.1,"21:22:00",1
"18/06/01","21:40",0.0,16.4,78.5,1009.7,289.8,1.3,2.9,313.2,0.00,12.7,19.9,"21:32:24",1
"18/06/01","21:50",0.0,16.1,79.5,1009.7,245.2,0.7,1.7,229.2,0.00,12.6,19.9,"21:43:04",1
"18/06/01","22:00",0.0,16.0,79.8,1009.7,258.9,1.2,2.7,243.0,0.00,12.6,19.8,"21:57:52",1
"18/06/01","22:10",0.0,16.0,79.6,1009.7,263.6,1.3,2.2,241.7,0.00,12.5,19.5,"22:00:56",1
"18/06/01","22:20",0.0,15.9,79.4,1009.7,288.2,1.3,2.5,258.8,0.00,12.4,19.5,"22:15:20",1
"18/06/01","22:30",0.0,15.8,80.3,1010.2,299.6,1.3,2.8,333.9,0.00,12.5,19.4,"22:20:32",1
"18/06/01","22:40",0.0,15.6,80.8,1010.0,290.4,1.5,2.9,329.8,0.00,12.4,19.7,"22:30:02",1
"18/06/01","22:50",0.0,15.6,80.7,1010.2,303.5,1.8,3.4,335.1,0.00,12.3,19.4,"22:43:44",1
"18/06/01","23:00",0.0,15.6,81.7,1010.2,311.8,1.8,3.1,336.5,0.00,12.5,19.3,"22:58:24",1
"18/06/01","23:10",0.0,15.6,81.6,1010.0,322.3,2.2,4.3,322.9,0.00,12.5,19.3,"23:04:24",1
"18/06/01","23:20",0.0,15.6,81.9,1009.7,328.7,2.3,4.4,341.5,0.00,12.6,19.1,"23:16:32",1
"18/06/01","23:30",0.0,15.5,82.9,1010.0,329.1,2.2,4.4,320.9,0.00,12.6,19.2,"23:21:36",1
"18/06/01","23:40",0.0,15.3,83.1,1009.7,328.7,2.1,3.5,332.2,0.00,12.5,19.0,"23:31:28",1
"18/06/01","23:50",0.0,15.2,83.8,1010.2,330.2,2.3,3.9,336.0,0.00,12.5,19.0,"23:46:56",1
"18/06/01","24:00",0.0,15.3,83.7,1010.2,325.2,3.0,4.7,329.0,0.00,12.6,19.0,"23:52:16",1
